User: anonymous   Login
Location: Unspecified
(0.0000°N, 0.0000°E)
Time: 21:17:45
(UTC+00:00)
Language:

GOSAT - Orbit

View from above orbital plane
View from above orbital plane
View from above satellite
View from above satellite

Ground track
Ground track

The orbit data is extracted from the following two-line orbital elements,

1 33492U 09002A   16177.43038244 -.00000012  00000-0  63151-5 0  9997
2 33492  98.0988 286.5814 0001276  76.0868 284.0489 14.67533125397506
Epoch (UTC): 25 June 2016 10:19:45
Eccentricity: 0.0001276
inclination: 98.0988°
perigee height: 668 km
apogee height: 670 km
right ascension of ascending node: 286.5814°
argument of perigee: 76.0868°
revolutions per day: 14.67533125
mean anomaly at epoch: 284.0489°
orbit number at epoch: 39750

The dashed part of the orbit path shows where the satellite is in the earth's shadow,  

DLR